{"data":{"norad_id":57378,"intl_designator":"2023-099BC","name":"STARLINK-6364","alt_names":[],"object_type":"PAYLOAD","status":"ACTIVE","operator":null,"country":"US","launch_date":"2023-07-16","launch_site_code":"AFETR","launch_vehicle":null,"mission":null,"orbit_class":"UNKNOWN","rcs_meters":null,"size_class":null,"mass_kg":null,"dimensions":null,"purposes":["comms"],"wikipedia_slug":null,"has_3d_model":false,"image_url":null,"decayed_at":null,"tle_current":{"epoch":"2026-05-25T00:56:15.616896Z","epoch_age_seconds":82049,"freshness":"FRESH","line1":"1 57378U 23099BC  26145.03906964  .00000248  00000+0  18543-4 0  9996","line2":"2 57378  43.0023 141.2802 0000736 266.7973  93.2795 15.27577286158951","mean_motion":15.27577286,"eccentricity":7.36e-5,"inclination_deg":43.0023,"raan_deg":141.2802,"arg_perigee_deg":266.7973,"mean_anomaly_deg":93.2795,"bstar":1.8543e-5,"rev_number":15895,"period_min":94.266916194511,"perigee_km":482.55223884925,"apogee_km":483.56220663883,"semimajor_km":6861.194222744,"source":"CELESTRAK","updated_at":"2026-05-25T13:38:18.296616Z"}}}